COSMOS 2251 DEB, 33972

Orbit data source: Space-Track

COSMOS 2251 DEB, 33972 is space debris in LEO originally from a launch on Wed, 16 Jun 1993 UTC launched from the Plesetsk Missile And Space Complex (PKMTR). The debris from Iridium 33, an American commercial communications satellite, has been tracked extensively since its accidental collision with the defunct Russian satellite Cosmos 2251 in 2009. This event, occurring at high speed in low Earth orbit (LEO), generated thousands of pieces of space debris, significantly increasing the risk of further collisions. The Iridium 33 debris cloud has impacted space traffic management and orbital debris mitigation strategies, making it a subject of ongoing study in space situational awareness.

Loading next visibility...
Identifier
33972, 1993-036FF
Orbit
LEO
Country
Flag of CISCIS
Related business
Manufacturer
Unknown
Mission
Spacecraft
Bus & Motor
Unknown
Mass
Unknown
Launch date (UTC)
1993-06-16 (33 years ago)
Launch vehicle
Unknown
Launch site
Plesetsk Missile And Space Complex (PKMTR)
Object type
Payload
Rocket body
Debris
Shape & HBR
Unknown shape, 0.1 m
Radar Cross Section
Medium (>0.1 m² and <1 m²)

Expand to show TLE details & history
Last TLE update: 2 days ago

TLE from 2 days ago
0 COSMOS 2251 DEB
1 33972U 93036FF  26175.09705083  .00003367  00000-0  10222-2 0  9996
2 33972  73.9932 193.8925 0124314 316.5102 100.1990 14.38178695898523
Epoch: 2026-06-24T02:19Z
TLE epoch observation values (Epoch: 2026-06-24T02:19:45.191Z)
Latitude
54.80673°
Longitude
-89.4383°
Altitude
790.021 km
Speed
7.455 km/s
True Right ascension
14h 31m 02s
True Declination
54° 38' 43"
Sunlit
Object was in daylight at epoch
Visualization orbit readout
Latitude
Unknown
Longitude
Unknown
Altitude
Unknown
Speed
Unknown
Apparent Right ascension
Unknown
Apparent Declination
Unknown
Sunlit
N/A
Visualization observer readout
Local Sidereal Time
01:53:54
Azimuth
Unknown
Elevation
Unknown
Doppler factor
Unknown
Orbital elements
Apogee altitude
850.911 km
Perigee altitude
673.383 km
Semi-major axis
7,140.284 km
Eccentricity
0.01243
Inclination
73.9932°
RAAN
193.8925°
Arg. of periapsis
316.5102°
True anomaly
101.59704°
Mean anomaly
100.199°
Eccentric anomaly
100.89842°
Mean motion
3.59724 °/min
Orbital period
100.08 mins
BSTAR
0.0010222

Documentation

Showing up to 5 results
|